Location: Saint+Peter+Port
(49.4500°N, 2.5330°W)
Time: 21:00:12
(UTC+01:00)

BlueWalker 3 - Pass Details

Date: 02 March 2024
Orbit: 485 x 495 km, 53.2° (Epoch: 21 April)

Event Time Altitude Azimuth Distance (km) Brightness Sun altitude
Rises 20:42:41 0° 288° (WNW) 2,559 6.8 -27.5°
Reaches altitude 10° 20:45:22 10° 269° (W) 1,672 5.4 -27.9°
Enters shadow 20:47:09 17° 242° (WSW) 1,304 4.4 -28.1°
